Weather History for Tampico, Mexico

Change the Weather History Date:

Monday, August 20, 2012

  Actual Average Record
Temperature  
Mean Temperature 81 °F -  
Max Temperature 86 °F 88 °F 95 °F (1997)
Min Temperature 76 °F 75 °F 37 °F (1999)
Cooling Degree Days 16    
Growing Degree Days 31 (Base 50)    
Moisture  
Dew Point 75 °F    
Average Humidity 86    
Maximum Humidity 99    
Minimum Humidity 70    
Precipitation  
Precipitation 0.08 in - - ()
Sea Level Pressure  
Sea Level Pressure 29.89 in    
Wind  
Wind Speed 5 mph ()    
Max Wind Speed 10 mph    
Max Gust Speed -    
Visibility 6.5 miles    
Events Rain , Thunderstorm    
Averages and records for this station are not official NWS values.
T = Trace of Precipitation, MM = Missing Value Source: Averaged Metar Reports

Daily Weather History Graph

Daily Weather History Graph

Search for Another Location

Airport:

Trip Planner

Search our weather history database for the weather conditions in past years. The results will help you decide how hot, cold, wet, or windy it might be!

Date:

Astronomy

Aug. 20, 2012 Rise Set
Actual Time 7:10 AM CDT 7:58 PM CDT
Civil Twilight 6:47 AM CDT 8:21 PM CDT
Nautical Twilight 6:20 AM CDT 8:48 PM CDT
Astronomical Twilight 5:52 AM CDT 9:16 PM CDT
Moon 10:00 AM CDT (8/20) 9:59 PM CDT (8/20)
Length of Visible Light 13h 33m
Length of Day
12h 47m
Waxing Crescent, 11% of the Moon is Illuminated
Aug 20
Waxing Crescent
Aug 24
First Quarter
Aug 31
Full
Sep 8
Last Quarter
Sep 15
New

Hourly Weather History & Observations

Time (CDT) Temp. Heat Index Dew Point Humidity Pressure Visibility Wind Dir Wind Speed Gust Speed Precip Events Conditions
12:45 AM 80 °F - 78 °F 91% 29.90 in 6 mi SE 4.5 mph - -   Partly Cloudy
3:45 AM 81 °F - 79 °F 92% 29.86 in 6 mi WSW 2.2 mph - - Thunderstorm Thunderstorm
5:40 AM 78.8 °F - 75.2 °F 89% 29.84 in 5.0 mi NNW 5.8 mph - N/A Rain Light Rain
6:40 AM 78 °F - 77 °F 96% 29.89 in 6 mi NW 6.7 mph - - Rain Light Rain
6:43 AM 78.8 °F - 75.2 °F 89% 29.86 in 5.0 mi NNW 9.2 mph - N/A Rain Light Rain
7:45 AM 77.0 °F - 75.2 °F 94% 29.87 in 4.0 mi North 5.8 mph - N/A Rain Light Rain
8:50 AM 77.0 °F - 73.4 °F 89% 29.88 in 4.0 mi NE 4.6 mph - N/A Rain Light Rain
9:45 AM 76 °F - 76 °F 99% 29.94 in 11 mi NE 4.5 mph - - Rain Light Drizzle
9:46 AM 77.0 °F - 75.2 °F 94% 29.91 in 4.0 mi NNE 4.6 mph - N/A Rain Light Rain
10:44 AM 77.0 °F - 75.2 °F 94% 29.90 in 4.0 mi NNE 5.8 mph - N/A   Overcast
11:47 AM 78.8 °F - 75.2 °F 89% 29.91 in 4.0 mi NE 4.6 mph - N/A   Overcast
12:45 PM 80 °F - 77 °F 89% 29.94 in 11 mi ENE 2.2 mph - - Rain Light Drizzle
12:50 PM 78.8 °F - 75.2 °F 89% 29.91 in 4.0 mi East 4.6 mph - N/A   Overcast
1:42 PM 80.6 °F 86.2 °F 75.2 °F 84% 29.89 in 4.0 mi ENE 6.9 mph - N/A   Mostly Cloudy
2:41 PM 82.4 °F 88.2 °F 73.4 °F 74% 29.87 in 4.0 mi NE 8.1 mph - N/A   Mostly Cloudy
3:45 PM 83 °F - 77 °F 77% 29.90 in 14 mi ENE 6.7 mph - -   Partly Cloudy
3:50 PM 80.6 °F 84.6 °F 71.6 °F 74% 29.86 in 4.0 mi NE 10.4 mph - N/A   Mostly Cloudy
4:49 PM 84.2 °F 90.9 °F 73.4 °F 70% 29.84 in 7.0 mi North 9.2 mph - N/A   Mostly Cloudy
5:42 PM 82.4 °F 88.2 °F 73.4 °F 74% 29.85 in 7.0 mi NNE 4.6 mph - N/A   Mostly Cloudy
6:40 PM 82 °F - 77 °F 81% 29.88 in 14 mi NE 6.7 mph - -   Scattered Clouds
6:47 PM 82.4 °F 88.2 °F 73.4 °F 74% 29.81 in 7.0 mi NE 10.4 mph - N/A   Mostly Cloudy
7:47 PM 80.6 °F 85.4 °F 73.4 °F 79% 29.85 in 7.0 mi NNE 4.6 mph - N/A   Mostly Cloudy
8:41 PM 80.6 °F 85.4 °F 73.4 °F 79% 29.88 in 7.0 mi NNE 5.8 mph - N/A   Mostly Cloudy
9:42 PM 78.8 °F - 75.2 °F 89% 29.91 in 7.0 mi Calm Calm - N/A   Mostly Cloudy
9:45 PM 78 °F - 76 °F 94% 29.95 in 6 mi Calm Calm - -   Scattered Clouds
10:42 PM 78.8 °F - 73.4 °F 83% 29.92 in 7.0 mi Calm Calm - N/A   Mostly Cloudy